Flag for Australia Weather past 2 weeks in Campbelltown, New South Wales, Australia

Now
41 °F

Quite cool.


Feels Like: 41 °F
Forecast: 42 / 65 °F
Wind: No wind

Location: Camden Airport

Current Time: Aug 31, 2015 at 8:38:18 AM

Latest Report: Aug 31, 2015 at 6:00 AM


Visibility: N/A

Pressure: 30.04 "Hg

Humidity: 94%

Dew point: 40 °F

Location of CampbelltownLocation

Historic Weather in Campbelltown — Graph

°F

Campbelltown temperature yesterday

Maximum temperature yesterday: 63 °F (at 12:00 PM)
Minimum temperature yesterday: 37 °F (at 6:00 AM)
Average temperature yesterday: 50 °F

Past Weeks' High & Low Weather Summary

 TemperatureHumidityPressure
High79 °F (Aug 22, 3:00 PM)100% (Aug 23, 9:00 PM)30.37 "Hg (Aug 23, 9:00 PM)
Low34 °F (Aug 17, 6:00 AM)31% (Aug 17, 3:00 PM)29.90 "Hg (Aug 25, 8:00 PM)
Average54 °F74%30.12 "Hg
* Reported Aug 16 6:00 AM — Aug 31 6:00 AM, Campbelltown, Weather by CustomWeather, © 2015

Note: Actual official high and low records may vary slightly from our data, if they occured in-between our weather recording intervals... More about our weather records

Advertising

Campbelltown weather history for previous 24 hours

 ConditionsComfort  
Time TempWeatherWind HumidityBarometerVisibility
6:00 AM
Mon, Aug 31
41 °FQuite cool.No wind94%30.04 "HgN/A
5:00 AM43 °FQuite cool.2 mph94%30.03 "HgN/A
3:00 AM47 °FPassing clouds.1 mph84%30.04 "HgN/A
2:00 AM48 °FCool.6 mph85%30.06 "HgN/A
12:00 AM52 °FOvercast.3 mph72%30.09 "HgN/A
11:00 PM
Sun, Aug 30
52 °FCool.5 mph75%30.09 "HgN/A
9:00 PM48 °FPassing clouds.No wind86%30.10 "HgN/A
8:00 PM49 °FCool.No wind81%30.09 "HgN/A
6:00 PM55 °FCool.7 mph61%30.06 "HgN/A
5:00 PM58 °FRefreshingly cool.5 mph57%30.05 "HgN/A
3:00 PM62 °FOvercast.3 mph40%30.04 "HgN/A
2:00 PM61 °FRefreshingly cool.2 mph47%30.05 "HgN/A
12:00 PM63 °FMild.3 mph41%30.09 "HgN/A
11:00 AM60 °FRefreshingly cool.6 mph43%30.11 "HgN/A
9:00 AM54 °FCool.7 mph55%30.14 "HgN/A
8:00 AM47 °FCool.2 mph72%30.14 "HgN/A
Weather by CustomWeather, © 2015

See weather overviewHow to use our weather pages